Home   Weather   Lugo   Past weeks

Flag for Spain Past Weather in Lugo, Galicia, Spain — Yesterday and Last 2 Weeks

Now
50 °F

Fog.


Feels Like: 49 °F
Forecast: 39 / 52 °F
Wind: 3 mph from Southwest

Location: Santiago / Labacolla

Current Time: Apr 25, 2017 at 5:07:23 am

Latest Report: Apr 25, 2017 at 4:30 am


Visibility: 2 mi

Pressure: 29.89 "Hg

Humidity: 94%

Dew Point: 48 °F

Location of LugoLocation

Past Weather in Lugo — Graph

°F

Lugo Temperature Yesterday

Maximum temperature yesterday: 75 °F (at 3:00 pm)
Minimum temperature yesterday: 48 °F (at 5:30 am)
Average temperature yesterday: 61 °F

High & Low Weather Summary for the Past Weeks

 TemperatureHumidityPressure
High81 °F (Apr 10, 3:00 pm)100% (Apr 12, 7:30 am)30.27 "Hg (Apr 12, 7:30 am)
Low41 °F (Apr 23, 7:30 am)16% (Apr 21, 6:00 pm)29.92 "Hg (Apr 24, 4:00 pm)
Average59 °F62%30.11 "Hg
* Reported Apr 10 3:00 am — Apr 25 3:30 am, Lugo, Weather by CustomWeather, © 2017

Note: Actual official high and low records may vary slightly from our data, if they occured in-between our weather recording intervals... More about our weather records

Advertising

Lugo Weather History for the Previous 24 Hours

Scroll right to see more
 ConditionsComfort  
Time TempWeatherWind HumidityBarometerVisibility
3:30 am
Tue, Apr 25
50 °FFog.5 mph100%29.92 "Hg2 mi
3:00 am50 °FFog.3 mph100%29.92 "Hg2 mi
2:30 am50 °FFog.6 mph100%29.92 "Hg2 mi
2:00 am52 °FFog.5 mph88%29.92 "Hg3 mi
1:30 am52 °FFog.2 mph94%29.92 "Hg3 mi
12:30 am52 °FPassing clouds.No wind88%29.92 "Hg5 mi
12:00 am54 °FPassing clouds.1 mph82%29.95 "Hg6 mi
11:30 pm
Mon, Apr 24
54 °FPassing clouds.2 mph88%29.95 "HgN/A
11:00 pm55 °FPassing clouds.2 mph82%29.92 "HgN/A
10:30 pm57 °FPassing clouds.3 mph77%29.92 "HgN/A
10:00 pm57 °FPassing clouds.6 mph77%29.92 "HgN/A
9:30 pm61 °FPassing clouds.7 mph68%29.92 "HgN/A
9:00 pm63 °FPassing clouds.5 mph64%29.92 "HgN/A
8:30 pm66 °FPassing clouds.5 mph56%29.92 "HgN/A
8:00 pm68 °FPassing clouds.8 mph49%29.92 "HgN/A
7:30 pm70 °FPassing clouds.8 mph46%29.92 "HgN/A
7:00 pm72 °FPassing clouds.8 mph41%29.92 "HgN/A
6:30 pm73 °FPassing clouds.8 mph36%29.92 "HgN/A
6:00 pm73 °FPassing clouds.8 mph38%29.92 "HgN/A
5:30 pm75 °FPassing clouds.9 mph36%29.92 "HgN/A
5:00 pm75 °FPassing clouds.8 mph34%29.92 "HgN/A
4:30 pm75 °FPassing clouds.8 mph34%29.92 "HgN/A
4:00 pm75 °FPassing clouds.7 mph31%29.92 "HgN/A
3:30 pm73 °FPassing clouds.7 mph38%29.95 "HgN/A
3:00 pm75 °FPassing clouds.8 mph31%29.95 "HgN/A
2:00 pm72 °FSunny.5 mph38%29.95 "Hg10 mi
1:30 pm73 °FPassing clouds.5 mph29%29.98 "HgN/A
1:00 pm73 °FSunny.2 mph29%29.98 "Hg10 mi
12:30 pm68 °FSunny.2 mph49%29.98 "Hg10 mi
12:00 pm66 °FPassing clouds.3 mph49%29.98 "HgN/A
11:30 am64 °FPassing clouds.3 mph52%29.98 "HgN/A
11:00 am63 °FSunny.2 mph56%29.98 "Hg10 mi
10:30 am61 °FSunny.1 mph52%29.98 "Hg10 mi
10:00 am57 °FSunny.2 mph55%29.98 "Hg10 mi
9:30 am55 °FSunny.3 mph55%29.98 "Hg10 mi
9:00 am54 °FSunny.2 mph54%29.98 "Hg10 mi
8:30 am50 °FSunny.5 mph62%29.98 "Hg10 mi
8:00 am48 °FPassing clouds.6 mph66%29.95 "HgN/A
7:30 am48 °FPassing clouds.6 mph66%29.95 "HgN/A
7:00 am50 °FPassing clouds.5 mph62%29.95 "HgN/A
6:30 am50 °FPassing clouds.2 mph62%29.95 "HgN/A
6:00 am48 °FPassing clouds.No wind66%29.95 "HgN/A
5:30 am48 °FPassing clouds.No wind66%29.95 "HgN/A
Weather by CustomWeather, © 2017

See weather overviewHow to use our weather pages